Location: Borea
(45.6167°N, 23.0167°E)
Time: 06:27:24
(UTC+00:00)

Lacrosse 5 rocket - Pass Details

Date: 03 February 2023
Orbit: 455 x 612 km, 57.0° (Epoch: 29 March)

Event Time Altitude Azimuth Distance (km) Brightness Sun altitude
Rises 17:54:02 0° 308° (NW) 2,490 5.5 -24.2°
Reaches altitude 10° 17:56:09 10° 307° (NW) 1,625 4.4 -24.6°
Enters shadow 17:58:45 44° 293° (WNW) 665 2.1 -25.1°
